Total_Precipitation_Accumulation
0.62 0.94 1.40 1.97 2.45 2.68 2.68 2.75 2.73 2.77 2.83 2.85 2.94 3.19 3.36 3.38 3.35 3.45 3.48 3.32 3.24 3.27 3.38 3.37 3.30 3.04 2.86 2.77 2.71 2.61 2.41 2.18 2.00 1.98 1.91 1.74 1.55 1.48 1.41 1.33 1.29 1.21 1.16
0.64 1.01 1.38 1.76 2.11 2.42 2.60 2.71 2.66 2.85 3.10 3.44 3.85 4.19 4.42 4.37 4.22 4.15 4.05 3.90 3.80 3.72 3.64 3.62 3.43 3.19 3.02 2.81 2.64 2.56 2.46 2.29 2.13 2.06 2.10 1.86 1.68 1.42 1.27 1.28 1.21 1.14 1.09
0.71 0.98 1.17 1.41 1.71 2.06 2.37 2.57 2.76 3.16 3.62 4.13 4.81 5.26 5.18 4.87 4.73 4.47 4.36 4.13 3.86 3.78 3.79 3.55 3.35 3.15 2.95 2.79 2.59 2.52 2.48 2.29 2.17 2.08 2.12 1.96 1.75 1.52 1.37 1.21 1.11 1.08 1.08
0.64 0.80 1.03 1.24 1.46 1.86 2.26 2.60 2.96 3.46 4.07 4.56 5.03 5.33 5.37 5.17 4.95 4.52 4.16 3.77 3.43 3.24 3.17 3.09 2.89 2.77 2.64 2.49 2.35 2.34 2.27 2.13 1.98 1.88 1.72 1.61 1.50 1.47 1.37 1.22 1.09 1.06 1.09
0.56 0.63 0.78 0.99 1.28 1.70 2.14 2.53 2.88 3.46 4.01 4.53 4.88 5.10 5.23 5.13 4.81 4.19 3.62 3.24 2.94 2.73 2.53 2.36 2.26 2.24 2.14 1.96 1.79 1.76 1.73 1.65 1.57 1.54 1.46 1.39 1.31 1.27 1.25 1.20 1.11 1.04 0.99
0.57 0.60 0.68 0.81 1.10 1.45 1.84 2.22 2.58 3.25 3.88 4.41 4.78 5.02 5.06 4.80 4.26 3.67 3.16 2.84 2.61 2.38 2.19 2.06 1.89 1.79 1.67 1.50 1.33 1.25 1.26 1.31 1.32 1.30 1.25 1.14 1.09 1.07 1.09 1.07 1.02 1.00 0.96
0.56 0.55 0.63 0.71 0.98 1.31 1.63 1.99 2.37 2.83 3.30 3.69 3.92 4.06 4.09 3.91 3.62 3.26 2.86 2.52 2.31 2.10 1.86 1.62 1.45 1.36 1.29 1.20 1.11 1.00 0.98 1.04 1.10 1.07 1.03 1.02 0.95 0.92 0.98 1.03 1.01 0.95 0.90
0.56 0.58 0.65 0.74 0.86 1.09 1.39 1.75 2.07 2.36 2.59 2.76 2.94 2.93 2.88 2.81 2.69 2.39 2.06 1.80 1.57 1.44 1.27 1.09 1.02 0.96 0.95 0.94 0.93 0.87 0.81 0.85 0.95 0.99 1.01 1.02 1.01 1.02 1.05 1.08 1.12 1.16 1.06
0.60 0.65 0.72 0.77 0.86 0.99 1.19 1.39 1.54 1.74 1.80 1.75 1.76 1.81 1.83 1.80 1.69 1.54 1.32 1.09 0.90 0.80 0.73 0.68 0.66 0.61 0.64 0.69 0.73 0.76 0.77 0.77 0.79 0.82 0.85 0.91 0.96 0.99 0.98 1.01 1.08 1.20 1.21
0.63 0.67 0.74 0.81 0.87 0.91 1.09 1.19 1.20 1.20 1.23 1.25 1.23 1.21 1.22 1.21 1.18 1.13 1.02 0.88 0.75 0.63 0.54 0.51 0.52 0.47 0.46 0.49 0.55 0.60 0.64 0.70 0.70 0.68 0.69 0.72 0.78 0.92 1.01 1.07 1.10 1.16 1.22
0.71 0.75 0.74 0.72 0.73 0.75 0.79 0.85 0.89 0.95 0.96 0.95 0.96 0.95 0.88 0.82 0.80 0.83 0.81 0.73 0.64 0.57 0.50 0.45 0.44 0.43 0.40 0.40 0.43 0.44 0.47 0.55 0.58 0.56 0.57 0.62 0.67 0.75 0.82 0.91 1.01 1.14 1.25
0.80 0.75 0.71 0.67 0.67 0.71 0.73 0.73 0.75 0.75 0.78 0.78 0.77 0.77 0.69 0.64 0.62 0.61 0.61 0.56 0.53 0.52 0.50 0.48 0.46 0.42 0.37 0.36 0.36 0.36 0.36 0.39 0.42 0.45 0.48 0.48 0.49 0.57 0.64 0.73 0.82 0.91 1.02
1.01 0.89 0.79 0.71 0.67 0.68 0.69 0.65 0.62 0.59 0.55 0.53 0.54 0.60 0.60 0.57 0.59 0.55 0.53 0.55 0.52 0.48 0.46 0.45 0.43 0.40 0.37 0.38 0.37 0.34 0.33 0.33 0.34 0.37 0.40 0.43 0.47 0.53 0.59 0.67 0.71 0.79 0.86
1.06 0.91 0.85 0.77 0.72 0.67 0.62 0.58 0.54 0.49 0.46 0.41 0.40 0.46 0.50 0.51 0.52 0.53 0.50 0.47 0.44 0.42 0.37 0.33 0.34 0.35 0.33 0.30 0.29 0.28 0.29 0.29 0.29 0.30 0.32 0.35 0.41 0.48 0.56 0.61 0.67 0.77 0.87
1.12 1.04 0.93 0.82 0.74 0.70 0.63 0.57 0.51 0.44 0.41 0.43 0.44 0.46 0.49 0.48 0.49 0.50 0.49 0.42 0.37 0.33 0.30 0.28 0.29 0.30 0.27 0.23 0.22 0.23 0.23 0.26 0.28 0.29 0.30 0.28 0.34 0.42 0.47 0.54 0.67 0.81 0.92
1.13 1.06 0.96 0.85 0.78 0.76 0.73 0.67 0.61 0.53 0.49 0.52 0.53 0.50 0.48 0.49 0.51 0.49 0.45 0.39 0.36 0.32 0.28 0.29 0.28 0.24 0.20 0.21 0.20 0.19 0.24 0.29 0.33 0.38 0.35 0.28 0.26 0.30 0.35 0.44 0.55 0.67 0.82
1.25 1.19 1.09 0.97 0.90 0.84 0.77 0.74 0.68 0.61 0.56 0.55 0.52 0.48 0.44 0.43 0.42 0.38 0.39 0.36 0.36 0.33 0.30 0.30 0.29 0.26 0.18 0.15 0.15 0.16 0.22 0.32 0.39 0.41 0.39 0.32 0.26 0.32 0.39 0.40 0.44 0.52 0.65
1.35 1.24 1.15 1.08 1.03 0.93 0.85 0.77 0.67 0.59 0.53 0.50 0.46 0.41 0.38 0.39 0.37 0.37 0.38 0.35 0.36 0.38 0.34 0.31 0.31 0.30 0.17 0.13 0.14 0.16 0.25 0.34 0.35 0.33 0.34 0.39 0.44 0.37 0.36 0.40 0.52 0.67 0.75
1.36 1.26 1.14 1.06 1.00 0.93 0.82 0.70 0.61 0.51 0.46 0.45 0.40 0.35 0.31 0.31 0.32 0.33 0.36 0.37 0.40 0.43 0.36 0.31 0.33 0.31 0.22 0.16 0.16 0.17 0.27 0.34 0.32 0.29 0.28 0.32 0.40 0.37 0.41 0.55 0.76 0.95 1.09
1.18 1.15 1.09 1.00 0.91 0.80 0.67 0.60 0.57 0.50 0.41 0.36 0.32 0.29 0.29 0.30 0.33 0.35 0.38 0.34 0.37 0.43 0.34 0.27 0.29 0.26 0.21 0.15 0.17 0.20 0.25 0.34 0.35 0.36 0.34 0.36 0.39 0.40 0.52 0.67 0.91 1.13 1.24
1.08 1.02 0.95 0.89 0.79 0.66 0.56 0.52 0.49 0.43 0.30 0.23 0.23 0.25 0.28 0.28 0.27 0.34 0.38 0.36 0.36 0.39 0.36 0.31 0.30 0.25 0.17 0.15 0.18 0.18 0.21 0.29 0.37 0.40 0.44 0.46 0.47 0.45 0.57 0.76 0.94 1.14 1.19
0.99 0.92 0.83 0.72 0.59 0.48 0.46 0.45 0.38 0.28 0.19 0.19 0.22 0.24 0.24 0.20 0.20 0.31 0.34 0.35 0.40 0.37 0.36 0.35 0.32 0.26 0.20 0.14 0.12 0.12 0.13 0.23 0.38 0.49 0.52 0.52 0.51 0.53 0.69 0.84 1.04 1.25 1.34
0.78 0.69 0.60 0.53 0.44 0.38 0.39 0.38 0.28 0.19 0.16 0.22 0.26 0.25 0.22 0.21 0.20 0.25 0.28 0.30 0.36 0.36 0.33 0.32 0.31 0.27 0.23 0.15 0.08 0.08 0.10 0.15 0.28 0.43 0.57 0.58 0.54 0.69 0.98 1.15 1.27 1.43 1.48
0.60 0.51 0.45 0.44 0.40 0.32 0.29 0.26 0.18 0.16 0.21 0.28 0.28 0.26 0.27 0.27 0.22 0.21 0.20 0.21 0.24 0.26 0.30 0.30 0.30 0.28 0.25 0.17 0.12 0.13 0.15 0.18 0.23 0.36 0.54 0.68 0.72 0.88 1.17 1.37 1.47 1.53 1.42
0.41 0.37 0.38 0.38 0.33 0.26 0.21 0.17 0.15 0.16 0.25 0.26 0.22 0.21 0.21 0.22 0.23 0.18 0.12 0.11 0.11 0.10 0.16 0.22 0.24 0.25 0.21 0.13 0.13 0.15 0.18 0.21 0.26 0.34 0.50 0.69 0.79 0.99 1.21 1.33 1.35 1.29 1.19
0.25 0.25 0.27 0.26 0.22 0.19 0.17 0.13 0.12 0.13 0.20 0.23 0.19 0.17 0.15 0.14 0.13 0.15 0.13 0.07 0.06 0.06 0.08 0.11 0.14 0.14 0.14 0.12 0.12 0.13 0.18 0.23 0.30 0.38 0.58 0.76 0.85 0.99 1.12 1.19 1.15 1.06 0.97